Year,Month,Day,Hour,Minute,Value (Times are PST for temperature in C)
2011,10,21,10,13,10.70
2011,10,21,10,14,10.70
2011,10,21,10,15,10.80
2011,10,21,10,16,10.80
2011,10,21,10,17,10.80
2011,10,21,10,18,10.80
2011,10,21,10,19,10.80
2011,10,21,10,20,10.80
2011,10,21,10,21,10.80
2011,10,21,10,22,10.90
2011,10,21,10,23,10.90
2011,10,21,10,24,10.90
2011,10,21,10,25,10.90
2011,10,21,10,26,11.00
2011,10,21,10,27,11.00
2011,10,21,10,28,11.00
2011,10,21,10,29,10.90
2011,10,21,10,30,10.90
2011,10,21,10,31,10.90
2011,10,21,10,32,10.90
2011,10,21,10,33,10.90
2011,10,21,10,34,10.90
2011,10,21,10,35,10.90
2011,10,21,10,36,10.90
2011,10,21,10,37,10.90
2011,10,21,10,38,10.90
2011,10,21,10,39,10.90
2011,10,21,10,40,10.90
2011,10,21,10,41,10.90
2011,10,21,10,42,10.90
2011,10,21,10,43,10.90
2011,10,21,10,44,10.90
2011,10,21,10,45,11.00
2011,10,21,10,46,11.00
2011,10,21,10,47,11.00
2011,10,21,10,48,11.00
2011,10,21,10,49,11.00
2011,10,21,10,50,11.00
2011,10,21,10,51,11.00
2011,10,21,10,52,11.00
2011,10,21,10,53,11.00
2011,10,21,10,54,11.00
2011,10,21,10,55,11.00
2011,10,21,10,56,10.90
2011,10,21,10,57,10.90
2011,10,21,10,58,10.90
2011,10,21,10,59,10.90
2011,10,21,11,00,10.90
2011,10,21,11,01,10.90
2011,10,21,11,02,10.90
2011,10,21,11,03,10.90
2011,10,21,11,04,10.90
2011,10,21,11,05,10.90
2011,10,21,11,06,10.90
2011,10,21,11,07,10.80
2011,10,21,11,08,10.80
2011,10,21,11,09,10.80
2011,10,21,11,10,10.80
2011,10,21,11,11,10.80
2011,10,21,11,12,10.80
2011,10,21,11,13,10.80
2011,10,21,11,14,10.80
2011,10,21,11,15,10.80
2011,10,21,11,16,10.80
2011,10,21,11,17,10.80
2011,10,21,11,18,10.80
2011,10,21,11,19,10.80
2011,10,21,11,20,10.80
2011,10,21,11,21,10.80
2011,10,21,11,22,10.80
2011,10,21,11,23,10.80
2011,10,21,11,24,10.80
2011,10,21,11,25,10.80
2011,10,21,11,26,10.80
2011,10,21,11,27,10.90
2011,10,21,11,28,10.90
2011,10,21,11,29,10.90
2011,10,21,11,30,10.90
2011,10,21,11,31,10.90
2011,10,21,11,32,10.90
2011,10,21,11,33,10.90
2011,10,21,11,34,10.90
2011,10,21,11,35,10.90
2011,10,21,11,36,10.90
2011,10,21,11,37,10.90
2011,10,21,11,38,10.90
2011,10,21,11,39,10.90
2011,10,21,11,40,11.00
2011,10,21,11,41,11.00
2011,10,21,11,42,11.00
2011,10,21,11,43,11.00
2011,10,21,11,44,11.00
2011,10,21,11,45,11.00
2011,10,21,11,46,11.00
2011,10,21,11,47,11.10
2011,10,21,11,48,11.10
2011,10,21,11,49,11.10
2011,10,21,11,50,11.10
2011,10,21,11,51,11.10
2011,10,21,11,52,11.10
2011,10,21,11,53,11.10
2011,10,21,11,54,11.10
2011,10,21,11,55,11.10
2011,10,21,11,56,11.10
2011,10,21,11,57,11.10
2011,10,21,11,58,11.10
2011,10,21,11,59,11.10
2011,10,21,12,00,11.20
2011,10,21,12,01,11.20
2011,10,21,12,02,11.20
2011,10,21,12,03,11.20
2011,10,21,12,04,11.20
2011,10,21,12,05,11.20
2011,10,21,12,06,11.20
2011,10,21,12,07,11.20
2011,10,21,12,08,11.20
2011,10,21,12,09,11.20
2011,10,21,12,10,11.20
2011,10,21,12,11,11.20
2011,10,21,12,12,11.20
2011,10,21,12,13,11.20
2011,10,21,12,14,11.20
2011,10,21,12,15,11.20
2011,10,21,12,16,11.20
2011,10,21,12,17,11.20
2011,10,21,12,18,11.20
2011,10,21,12,19,11.20
2011,10,21,12,20,11.20
2011,10,21,12,21,11.20
2011,10,21,12,22,11.20
2011,10,21,12,23,11.20
2011,10,21,12,24,11.20
2011,10,21,12,25,11.20
2011,10,21,12,26,11.30
2011,10,21,12,27,11.30
2011,10,21,12,28,11.30
2011,10,21,12,29,11.30
2011,10,21,12,30,11.30
2011,10,21,12,31,11.30
2011,10,21,12,32,11.30
2011,10,21,12,33,11.30
2011,10,21,12,34,11.30
2011,10,21,12,35,11.30
2011,10,21,12,36,11.30
2011,10,21,12,37,11.30
2011,10,21,12,38,11.40
2011,10,21,12,39,11.40
2011,10,21,12,40,11.40
2011,10,21,12,41,11.40
2011,10,21,12,42,11.50
2011,10,21,12,43,11.50
2011,10,21,12,44,11.60
2011,10,21,12,45,11.60
2011,10,21,12,46,11.70
2011,10,21,12,47,11.70
2011,10,21,12,48,11.70
2011,10,21,12,49,11.80
2011,10,21,12,50,11.80
2011,10,21,12,51,11.80
2011,10,21,12,52,11.80
2011,10,21,12,53,11.80
2011,10,21,12,54,11.80
2011,10,21,12,55,11.90
2011,10,21,12,56,11.90
2011,10,21,12,57,11.90
2011,10,21,12,58,12.00
2011,10,21,12,59,12.00
2011,10,21,13,00,12.00
2011,10,21,13,01,12.00
2011,10,21,13,02,12.00
2011,10,21,13,03,12.10
2011,10,21,13,04,12.10
2011,10,21,13,05,12.00
2011,10,21,13,06,12.00
2011,10,21,13,07,12.10
2011,10,21,13,08,12.00
2011,10,21,13,09,12.00
2011,10,21,13,10,12.00
2011,10,21,13,11,12.00
2011,10,21,13,12,12.10
2011,10,21,13,13,12.00
2011,10,21,13,14,12.10
2011,10,21,13,15,12.10
2011,10,21,13,16,12.10
2011,10,21,13,17,12.10
2011,10,21,13,18,12.10
2011,10,21,13,19,12.10
2011,10,21,13,20,12.10
2011,10,21,13,21,12.10
2011,10,21,13,22,12.10
2011,10,21,13,23,12.10
2011,10,21,13,24,12.20
2011,10,21,13,25,12.20
2011,10,21,13,26,12.20
2011,10,21,13,27,12.20
2011,10,21,13,28,12.20
2011,10,21,13,29,12.30
2011,10,21,13,30,12.30
2011,10,21,13,31,12.30
2011,10,21,13,32,12.40
2011,10,21,13,33,12.40
2011,10,21,13,34,12.50
2011,10,21,13,35,12.50
2011,10,21,13,36,12.60
2011,10,21,13,37,12.60
2011,10,21,13,38,12.60
2011,10,21,13,39,12.60
2011,10,21,13,40,12.70
2011,10,21,13,41,12.70
2011,10,21,13,42,12.70
2011,10,21,13,43,12.70
2011,10,21,13,44,12.80
2011,10,21,13,45,12.80
2011,10,21,13,46,12.80
2011,10,21,13,47,12.90
2011,10,21,13,48,13.00
2011,10,21,13,49,13.00
2011,10,21,13,50,13.10
2011,10,21,13,51,13.10
2011,10,21,13,52,13.10
2011,10,21,13,53,13.20
2011,10,21,13,54,13.20
2011,10,21,13,55,13.30
2011,10,21,13,56,13.40
2011,10,21,13,57,13.40
2011,10,21,13,58,13.50
2011,10,21,13,59,13.50
2011,10,21,14,00,13.60
2011,10,21,14,01,13.60
2011,10,21,14,02,13.70
2011,10,21,14,03,13.70
2011,10,21,14,04,13.70
2011,10,21,14,05,13.80
2011,10,21,14,06,13.80
2011,10,21,14,07,13.90
2011,10,21,14,08,13.90
2011,10,21,14,09,14.00
2011,10,21,14,10,14.00
2011,10,21,14,11,14.10
2011,10,21,14,12,14.20
2011,10,21,14,13,14.20
2011,10,21,14,14,14.20
2011,10,21,14,15,14.30
2011,10,21,14,16,14.30
2011,10,21,14,17,14.30
2011,10,21,14,18,14.30
2011,10,21,14,19,14.20
2011,10,21,14,20,14.00
2011,10,21,14,21,13.90
2011,10,21,14,22,13.70
2011,10,21,14,23,13.60
2011,10,21,14,24,13.40
2011,10,21,14,25,13.30
2011,10,21,14,26,13.20
2011,10,21,14,27,13.10
2011,10,21,14,28,13.10
2011,10,21,14,29,13.10
2011,10,21,14,30,13.10
2011,10,21,14,31,13.10
2011,10,21,14,32,13.10
2011,10,21,14,33,13.10
2011,10,21,14,34,13.00
2011,10,21,14,35,13.00
2011,10,21,14,36,12.90
2011,10,21,14,37,12.90
2011,10,21,14,38,12.90
2011,10,21,14,39,12.90
2011,10,21,14,40,12.80
2011,10,21,14,41,12.80
2011,10,21,14,42,12.80
2011,10,21,14,43,12.80
2011,10,21,14,44,12.80
2011,10,21,14,45,12.80
2011,10,21,14,46,12.80
2011,10,21,14,47,12.90
2011,10,21,14,48,12.90
2011,10,21,14,49,13.00
2011,10,21,14,50,13.00
2011,10,21,14,51,13.10
2011,10,21,14,52,13.10
2011,10,21,14,53,13.10
2011,10,21,14,54,13.10
2011,10,21,14,55,13.10
2011,10,21,14,56,13.10
2011,10,21,14,57,13.10
2011,10,21,14,58,13.10
2011,10,21,14,59,13.10
2011,10,21,15,00,13.20
2011,10,21,15,01,13.20
2011,10,21,15,02,13.30
2011,10,21,15,03,13.30
2011,10,21,15,04,13.30
2011,10,21,15,05,13.30
2011,10,21,15,06,13.20
2011,10,21,15,07,13.10
2011,10,21,15,08,13.00
2011,10,21,15,09,12.90
2011,10,21,15,10,12.80
2011,10,21,15,11,12.70
2011,10,21,15,12,12.60
2011,10,21,15,13,12.50
2011,10,21,15,14,12.40
2011,10,21,15,15,12.40
2011,10,21,15,16,12.40
2011,10,21,15,17,12.40
2011,10,21,15,18,12.40
2011,10,21,15,19,12.40
2011,10,21,15,20,12.30
2011,10,21,15,21,12.30
2011,10,21,15,22,12.30
2011,10,21,15,23,12.30
2011,10,21,15,24,12.30
2011,10,21,15,25,12.30
2011,10,21,15,26,12.30
2011,10,21,15,27,12.30
2011,10,21,15,28,12.30
2011,10,21,15,29,12.40
2011,10,21,15,30,12.40
2011,10,21,15,31,12.40
2011,10,21,15,32,12.50
2011,10,21,15,33,12.60
2011,10,21,15,34,12.60
2011,10,21,15,35,12.70
2011,10,21,15,36,12.80
2011,10,21,15,37,12.80
2011,10,21,15,38,12.80
2011,10,21,15,39,12.90
2011,10,21,15,40,12.90
2011,10,21,15,41,13.00
2011,10,21,15,42,13.10
2011,10,21,15,43,13.10
2011,10,21,15,44,13.10
2011,10,21,15,45,13.20
2011,10,21,15,46,13.20
2011,10,21,15,47,13.20
2011,10,21,15,48,13.20
2011,10,21,15,49,13.20
2011,10,21,15,50,13.20
2011,10,21,15,51,13.20
2011,10,21,15,52,13.20
2011,10,21,15,53,13.20
2011,10,21,15,54,13.20
2011,10,21,15,55,13.10
2011,10,21,15,56,13.10
2011,10,21,15,57,13.10
2011,10,21,15,58,13.10
2011,10,21,15,59,13.10
2011,10,21,16,00,13.10
2011,10,21,16,01,13.00
2011,10,21,16,02,12.90
2011,10,21,16,03,12.90
2011,10,21,16,04,12.90
2011,10,21,16,05,12.80
2011,10,21,16,06,12.80
2011,10,21,16,07,12.80
2011,10,21,16,08,12.80
2011,10,21,16,09,12.80
2011,10,21,16,10,12.80
2011,10,21,16,11,12.80
2011,10,21,16,12,12.90
2011,10,21,16,13,12.90
2011,10,21,16,14,12.90
2011,10,21,16,15,12.80
2011,10,21,16,16,12.80
2011,10,21,16,17,12.80
2011,10,21,16,18,12.70
2011,10,21,16,19,12.70
2011,10,21,16,20,12.60
2011,10,21,16,21,12.60
2011,10,21,16,22,12.60
2011,10,21,16,23,12.60
2011,10,21,16,24,12.50
2011,10,21,16,25,12.50
2011,10,21,16,26,12.40
2011,10,21,16,27,12.40
2011,10,21,16,28,12.30
2011,10,21,16,29,12.30
2011,10,21,16,30,12.30
2011,10,21,16,31,12.30
2011,10,21,16,32,12.30
2011,10,21,16,33,12.30
2011,10,21,16,34,12.30
2011,10,21,16,35,12.30
2011,10,21,16,36,12.30
2011,10,21,16,37,12.30
2011,10,21,16,38,12.30
2011,10,21,16,39,12.20
2011,10,21,16,40,12.20
2011,10,21,16,41,12.10
2011,10,21,16,42,12.00
2011,10,21,16,43,12.00
2011,10,21,16,44,11.90
2011,10,21,16,45,11.90
2011,10,21,16,46,11.80
2011,10,21,16,47,11.80
2011,10,21,16,48,11.80
2011,10,21,16,49,11.80
2011,10,21,16,50,11.80
2011,10,21,16,51,11.80
2011,10,21,16,52,11.80
2011,10,21,16,53,11.80
2011,10,21,16,54,11.70
2011,10,21,16,55,11.70
2011,10,21,16,56,11.70
2011,10,21,16,57,11.70
2011,10,21,16,58,11.70
2011,10,21,16,59,11.70
2011,10,21,17,00,11.70
2011,10,21,17,01,11.70
2011,10,21,17,02,11.70
2011,10,21,17,03,11.70
2011,10,21,17,04,11.70
2011,10,21,17,05,11.70
2011,10,21,17,06,11.70
2011,10,21,17,07,11.60
2011,10,21,17,08,11.60
2011,10,21,17,09,11.60
2011,10,21,17,10,11.60
2011,10,21,17,11,11.60
2011,10,21,17,12,11.60
2011,10,21,17,13,11.60
2011,10,21,17,14,11.50
2011,10,21,17,15,11.60
2011,10,21,17,16,11.60
2011,10,21,17,17,11.60
2011,10,21,17,18,11.60
2011,10,21,17,19,11.50
2011,10,21,17,20,11.50
2011,10,21,17,21,11.50
2011,10,21,17,22,11.50
2011,10,21,17,23,11.50
2011,10,21,17,24,11.50
2011,10,21,17,25,11.50
2011,10,21,17,26,11.50
2011,10,21,17,27,11.50
2011,10,21,17,28,11.50
2011,10,21,17,29,11.50
2011,10,21,17,30,11.50
2011,10,21,17,31,11.50
2011,10,21,17,32,11.50
2011,10,21,17,33,11.50
2011,10,21,17,34,11.50
2011,10,21,17,35,11.50
2011,10,21,17,36,11.50
2011,10,21,17,37,11.50
2011,10,21,17,38,11.50
2011,10,21,17,39,11.50
2011,10,21,17,40,11.40
2011,10,21,17,41,11.40
2011,10,21,17,42,11.40
2011,10,21,17,43,11.40
2011,10,21,17,44,11.30
2011,10,21,17,45,11.30
2011,10,21,17,46,11.30
2011,10,21,17,47,11.30
2011,10,21,17,48,11.30
2011,10,21,17,49,11.30
2011,10,21,17,50,11.30
2011,10,21,17,51,11.30
2011,10,21,17,52,11.30
2011,10,21,17,53,11.30
2011,10,21,17,54,11.30
